| time (UTC) | temp F | wind direction | speed knots | gust knots | rain 1hr in | rain 24hr in | rain mn in | humidity % | barometer mb |
| 20260504024356 | 57 | 199 | 0.0 | 0.0 | 0.00 | 0.00 | 0.00 | 65 | 1004.7 |
| 20260504023837 | 58 | 199 | 0.0 | 0.0 | 0.00 | 0.00 | 0.00 | 65 | 1004.7 |
| 20260504023339 | 58 | 199 | 0.0 | 0.0 | 0.00 | 0.00 | 0.00 | 65 | 1004.7 |
| 20260504022850 | 58 | 199 | 0.0 | 0.0 | 0.00 | 0.00 | 0.00 | 64 | 1004.6 |
| 20260504022331 | 59 | 199 | 0.0 | 0.0 | 0.00 | 0.00 | 0.00 | 63 | 1004.6 |
| 20260504021827 | 59 | 199 | 0.0 | 0.0 | 0.00 | 0.00 | 0.00 | 62 | 1004.6 |
| 20260504021329 | 60 | 199 | 0.0 | 0.0 | 0.00 | 0.00 | 0.00 | 60 | 1004.6 |
| 20260504020830 | 60 | 199 | 0.0 | 0.0 | 0.00 | 0.00 | 0.00 | 58 | 1004.6 |
| 20260504020332 | 60 | 199 | 0.0 | 0.0 | 0.00 | 0.00 | 0.00 | 56 | 1004.6 |
| 20260504015832 | 61 | 199 | 0.0 | 0.0 | 0.00 | 0.00 | 0.00 | 56 | 1004.6 |
| 20260504015404 | 61 | 199 | 0.0 | 1.7 | 0.00 | 0.00 | 0.00 | 55 | 1004.5 |
| 20260504014400 | 62 | 199 | 0.0 | 0.9 | 0.00 | 0.00 | 0.00 | 53 | 1004.5 |
| 20260504013909 | 63 | 199 | 0.0 | 0.0 | 0.00 | 0.00 | 0.00 | 53 | 1004.6 |
| 20260504013350 | 63 | 199 | 0.0 | 0.0 | 0.00 | 0.00 | 0.00 | 52 | 1004.6 |
| 20260504012844 | 63 | 199 | 0.0 | 0.0 | 0.00 | 0.00 | 0.00 | 52 | 1004.6 |
| 20260504012326 | 64 | 199 | 0.0 | 0.9 | 0.00 | 0.00 | 0.00 | 51 | 1004.5 |
| 20260504011856 | 64 | 199 | 0.0 | 0.9 | 0.00 | 0.00 | 0.00 | 52 | 1004.4 |
| 20260504011347 | 64 | 199 | 0.0 | 1.7 | 0.00 | 0.00 | 0.00 | 52 | 1004.4 |
| 20260504010847 | 64 | 199 | 0.0 | 1.7 | 0.00 | 0.00 | 0.00 | 51 | 1004.4 |
| 20260504010327 | 65 | 199 | 0.9 | 1.7 | 0.00 | 0.00 | 0.00 | 49 | 1004.4 |
| 20260504005341 | 65 | 199 | 1.7 | 4.3 | 0.00 | 0.00 | 0.00 | 50 | 1004.3 |
| 20260504004841 | 66 | 199 | 2.6 | 5.2 | 0.00 | 0.00 | 0.00 | 48 | 1004.3 |
| 20260504004341 | 66 | 196 | 3.5 | 5.2 | 0.00 | 0.00 | 0.00 | 46 | 1004.2 |
| 20260504003841 | 66 | 205 | 3.5 | 6.1 | 0.00 | 0.00 | 0.00 | 47 | 1004.2 |
| 20260504003412 | 66 | 204 | 4.3 | 6.1 | 0.00 | 0.00 | 0.00 | 46 | 1004.2 |
| 20260504002849 | 66 | 217 | 4.3 | 7.8 | 0.00 | 0.00 | 0.00 | 46 | 1004.2 |
| 20260504002349 | 66 | 219 | 4.3 | 7.8 | 0.00 | 0.00 | 0.00 | 47 | 1004.2 |
| 20260504001830 | 67 | 218 | 6.1 | 12.2 | 0.00 | 0.00 | 0.00 | 46 | 1004.2 |
| 20260504001332 | 67 | 222 | 7.8 | 12.2 | 0.00 | 0.00 | 0.00 | 44 | 1004.1 |
| 20260504000833 | 67 | 209 | 7.8 | 12.2 | 0.00 | 0.00 | 0.00 | 45 | 1004.2 |
| 20260504000332 | 67 | 213 | 7.8 | 12.2 | 0.00 | 0.00 | 0.00 | 45 | 1004.2 |
| 20260503235835 | 67 | 199 | 7.0 | 13.0 | 0.00 | 0.00 | 0.00 | 44 | 1004.2 |
| 20260503235335 | 67 | 227 | 10.4 | 15.6 | 0.00 | 0.00 | 0.00 | 44 | 1004.3 |
| 20260503234836 | 67 | 236 | 11.3 | 17.4 | 0.00 | 0.00 | 0.00 | 43 | 1004.3 |
| 20260503234331 | 67 | 227 | 13.0 | 17.4 | 0.00 | 0.00 | 0.00 | 44 | 1004.3 |
| 20260503233859 | 67 | 234 | 11.3 | 17.4 | 0.00 | 0.00 | 0.00 | 44 | 1004.3 |
| 20260503232905 | 67 | 250 | 9.6 | 16.5 | 0.00 | 0.00 | 0.00 | 43 | 1004.4 |
| 20260503232327 | 67 | 201 | 11.3 | 18.2 | 0.00 | 0.00 | 0.00 | 44 | 1004.4 |
| 20260503231828 | 67 | 182 | 11.3 | 20.9 | 0.00 | 0.00 | 0.00 | 44 | 1004.5 |
| 20260503231359 | 67 | 227 | 10.4 | 20.9 | 0.00 | 0.00 | 0.00 | 44 | 1004.5 |
| 20260503230833 | 67 | 199 | 10.4 | 19.1 | 0.00 | 0.00 | 0.00 | 43 | 1004.5 |
| 20260503230334 | 67 | 229 | 11.3 | 20.0 | 0.00 | 0.00 | 0.00 | 44 | 1004.6 |
| 20260503225904 | 67 | 213 | 14.8 | 21.7 | 0.00 | 0.00 | 0.00 | 43 | 1004.5 |
| 20260503225343 | 67 | 201 | 11.3 | 20.0 | 0.00 | 0.00 | 0.00 | 44 | 1004.6 |
| 20260503224825 | 67 | 233 | 13.9 | 20.0 | 0.00 | 0.00 | 0.00 | 44 | 1004.7 |
| 20260503224326 | 67 | 208 | 12.2 | 15.6 | 0.00 | 0.00 | 0.00 | 45 | 1004.6 |
| 20260503223857 | 67 | 205 | 12.2 | 17.4 | 0.00 | 0.00 | 0.00 | 45 | 1004.7 |
| 20260503223337 | 67 | 211 | 11.3 | 21.7 | 0.00 | 0.00 | 0.00 | 44 | 1004.6 |
| 20260503222848 | 66 | 205 | 14.8 | 21.7 | 0.00 | 0.00 | 0.00 | 44 | 1004.7 |
| 20260503222344 | 66 | 210 | 10.4 | 20.0 | 0.00 | 0.00 | 0.00 | 44 | 1004.7 |
| 20260503221846 | 66 | 221 | 13.9 | 20.0 | 0.00 | 0.00 | 0.00 | 45 | 1004.9 |
| 20260503221340 | 66 | 226 | 12.2 | 21.7 | 0.00 | 0.00 | 0.00 | 46 | 1004.8 |
| 20260503220849 | 66 | 221 | 12.2 | 21.7 | 0.00 | 0.00 | 0.00 | 45 | 1004.9 |
| 20260503220347 | 66 | 200 | 13.0 | 20.0 | 0.00 | 0.00 | 0.00 | 46 | 1004.7 |
| 20260503215827 | 66 | 206 | 13.9 | 21.7 | 0.00 | 0.00 | 0.00 | 45 | 1004.9 |
| 20260503215357 | 66 | 201 | 16.5 | 20.9 | 0.00 | 0.00 | 0.00 | 45 | 1005.1 |
| 20260503214835 | 65 | 208 | 13.0 | 20.9 | 0.00 | 0.00 | 0.00 | 45 | 1004.8 |
| 20260503214352 | 65 | 197 | 13.0 | 21.7 | 0.00 | 0.00 | 0.00 | 46 | 1004.8 |
| 20260503213852 | 65 | 201 | 13.0 | 23.5 | 0.00 | 0.00 | 0.00 | 46 | 1004.9 |
| 20260503213352 | 65 | 205 | 14.8 | 23.5 | 0.00 | 0.00 | 0.00 | 47 | 1005.0 |
| 20260503212826 | 65 | 173 | 10.4 | 24.3 | 0.00 | 0.00 | 0.00 | 46 | 1005.1 |
| 20260503212326 | 65 | 182 | 14.8 | 24.3 | 0.00 | 0.00 | 0.00 | 46 | 1005.2 |
| 20260503211826 | 65 | 213 | 12.2 | 20.9 | 0.00 | 0.00 | 0.00 | 47 | 1005.1 |
| 20260503211326 | 64 | 196 | 14.8 | 20.9 | 0.00 | 0.00 | 0.00 | 47 | 1005.2 |
| 20260503210826 | 64 | 215 | 12.2 | 21.7 | 0.00 | 0.00 | 0.00 | 46 | 1005.2 |
| 20260503210325 | 64 | 205 | 17.4 | 21.7 | 0.00 | 0.00 | 0.00 | 46 | 1005.3 |
| 20260503205827 | 64 | 221 | 14.8 | 25.2 | 0.00 | 0.00 | 0.00 | 46 | 1005.5 |
| 20260503205325 | 64 | 197 | 13.9 | 27.8 | 0.00 | 0.00 | 0.00 | 46 | 1005.5 |
| 20260503204854 | 64 | 205 | 16.5 | 27.8 | 0.00 | 0.00 | 0.00 | 46 | 1005.6 |
| 20260503204326 | 64 | 185 | 8.7 | 19.1 | 0.00 | 0.00 | 0.00 | 47 | 1005.6 |
| 20260503203853 | 64 | 207 | 13.0 | 19.1 | 0.00 | 0.00 | 0.00 | 46 | 1005.7 |
| 20260503203352 | 64 | 182 | 13.9 | 26.1 | 0.00 | 0.00 | 0.00 | 46 | 1005.7 |
| 20260503202914 | 63 | 201 | 17.4 | 26.1 | 0.00 | 0.00 | 0.00 | 47 | 1005.8 |
| 20260503202351 | 63 | 199 | 10.4 | 25.2 | 0.00 | 0.00 | 0.00 | 47 | 1006.0 |
| 20260503201852 | 63 | 211 | 15.6 | 24.3 | 0.00 | 0.00 | 0.00 | 46 | 1006.1 |
| 20260503201327 | 63 | 210 | 18.2 | 24.3 | 0.00 | 0.00 | 0.00 | 47 | 1006.0 |
| 20260503200853 | 63 | 185 | 8.7 | 19.1 | 0.00 | 0.00 | 0.00 | 52 | 1006.2 |
| 20260503200353 | 62 | 185 | 7.8 | 16.5 | 0.00 | 0.00 | 0.00 | 52 | 1006.4 |
| 20260503195825 | 62 | 187 | 10.4 | 21.7 | 0.00 | 0.00 | 0.00 | 52 | 1006.5 |
| 20260503195328 | 61 | 205 | 13.0 | 21.7 | 0.00 | 0.00 | 0.00 | 54 | 1006.6 |
| 20260503194826 | 61 | 209 | 13.0 | 19.1 | 0.00 | 0.00 | 0.00 | 55 | 1006.7 |
| 20260503194327 | 61 | 176 | 9.6 | 27.8 | 0.00 | 0.00 | 0.00 | 54 | 1006.8 |
| 20260503193826 | 61 | 193 | 9.6 | 27.8 | 0.00 | 0.00 | 0.00 | 54 | 1006.9 |
| 20260503193325 | 61 | 194 | 13.0 | 22.6 | 0.00 | 0.00 | 0.00 | 53 | 1007.1 |
| 20260503192826 | 61 | 178 | 13.9 | 18.2 | 0.00 | 0.00 | 0.00 | 53 | 1007.2 |
| 20260503192327 | 61 | 183 | 10.4 | 26.1 | 0.00 | 0.00 | 0.00 | 53 | 1007.1 |
| 20260503191853 | 61 | 217 | 15.6 | 31.3 | 0.00 | 0.00 | 0.00 | 53 | 1007.2 |
| 20260503191352 | 61 | 193 | 20.0 | 31.3 | 0.00 | 0.00 | 0.00 | 52 | 1007.1 |
| 20260503190851 | 61 | 190 | 17.4 | 23.5 | 0.00 | 0.00 | 0.00 | 49 | 1007.2 |
| 20260503190352 | 61 | 184 | 13.9 | 30.4 | 0.00 | 0.00 | 0.00 | 50 | 1007.3 |
| 20260503185827 | 61 | 201 | 19.1 | 33.0 | 0.00 | 0.00 | 0.00 | 48 | 1007.3 |
| 20260503185328 | 62 | 170 | 13.9 | 20.9 | 0.00 | 0.00 | 0.00 | 48 | 1007.3 |
| 20260503184827 | 62 | 191 | 12.2 | 20.0 | 0.00 | 0.00 | 0.00 | 49 | 1007.3 |
| 20260503184328 | 62 | 190 | 12.2 | 20.0 | 0.00 | 0.00 | 0.00 | 50 | 1007.3 |
| 20260503183854 | 62 | 192 | 12.2 | 21.7 | 0.00 | 0.00 | 0.00 | 50 | 1007.3 |
| 20260503183334 | 61 | 192 | 12.2 | 26.1 | 0.00 | 0.00 | 0.00 | 50 | 1007.4 |
| 20260503182835 | 61 | 205 | 20.9 | 27.8 | 0.00 | 0.00 | 0.00 | 49 | 1007.4 |
| 20260503182335 | 61 | 180 | 13.0 | 25.2 | 0.00 | 0.00 | 0.00 | 48 | 1007.5 |
| 20260503181835 | 61 | 160 | 9.6 | 26.1 | 0.00 | 0.00 | 0.00 | 49 | 1007.5 |
| 20260503181337 | 61 | 210 | 15.6 | 26.9 | 0.00 | 0.00 | 0.00 | 48 | 1007.5 |
| 20260503180836 | 61 | 177 | 11.3 | 21.7 | 0.00 | 0.00 | 0.00 | 49 | 1007.7 |
| 20260503180335 | 60 | 161 | 8.7 | 21.7 | 0.00 | 0.00 | 0.00 | 51 | 1007.7 |
| 20260503175836 | 60 | 174 | 7.8 | 14.8 | 0.00 | 0.00 | 0.00 | 52 | 1007.8 |
| 20260503175334 | 60 | 205 | 7.8 | 17.4 | 0.00 | 0.00 | 0.00 | 54 | 1007.9 |
| 20260503174836 | 59 | 147 | 7.8 | 20.9 | 0.00 | 0.00 | 0.00 | 54 | 1008.0 |
| 20260503174353 | 59 | 178 | 12.2 | 26.9 | 0.00 | 0.00 | 0.00 | 53 | 1008.0 |
| 20260503173853 | 59 | 194 | 14.8 | 26.9 | 0.00 | 0.00 | 0.00 | 53 | 1008.2 |
| 20260503173352 | 58 | 182 | 11.3 | 19.1 | 0.00 | 0.00 | 0.00 | 57 | 1008.2 |
| 20260503172828 | 58 | 180 | 8.7 | 19.1 | 0.00 | 0.00 | 0.00 | 58 | 1008.4 |
| 20260503172327 | 57 | 180 | 11.3 | 19.1 | 0.00 | 0.00 | 0.00 | 58 | 1008.5 |
| 20260503171826 | 57 | 176 | 7.0 | 13.0 | 0.00 | 0.00 | 0.00 | 58 | 1008.6 |
| 20260503171328 | 57 | 180 | 9.6 | 22.6 | 0.00 | 0.00 | 0.00 | 58 | 1008.7 |
| 20260503170914 | 57 | 180 | 13.9 | 24.3 | 0.00 | 0.00 | 0.00 | 57 | 1008.7 |
| 20260503170352 | 57 | 192 | 9.6 | 18.2 | 0.00 | 0.00 | 0.00 | 59 | 1008.9 |
| 20260503150915 | 54 | 182 | 12.2 | 22.6 | 0.00 | 0.00 | 0.00 | 64 | 1010.6 |
| 20260503150352 | 54 | 194 | 15.6 | 22.6 | 0.00 | 0.00 | 0.00 | 63 | 1010.7 |
| 20260503131345 | 52 | 212 | 13.9 | 21.7 | 0.00 | 0.00 | 0.00 | 59 | 1011.6 |
| 20260503130844 | 52 | 204 | 13.9 | 20.9 | 0.00 | 0.00 | 0.00 | 58 | 1011.6 |
| 20260503110336 | 50 | 197 | 9.6 | 14.8 | 0.00 | 0.01 | 0.00 | 55 | 1011.4 |
| 20260503090352 | 49 | 192 | 6.1 | 11.3 | 0.00 | 0.01 | 0.00 | 55 | 1012.2 |
| 20260503081355 | 49 | 210 | 7.0 | 13.0 | 0.00 | 0.01 | 0.00 | 55 | 1012.7 |
| 20260503080833 | 49 | 180 | 7.0 | 12.2 | 0.00 | 0.01 | 0.00 | 56 | 1012.7 |
| 20260503080357 | 49 | 191 | 8.7 | 12.2 | 0.00 | 0.01 | 0.00 | 54 | 1012.7 |
| 20260503072833 | 48 | 213 | 5.2 | 8.7 | 0.00 | 0.01 | 0.00 | 56 | 1012.9 |
| 20260503072330 | 48 | 197 | 6.1 | 8.7 | 0.00 | 0.01 | 0.00 | 58 | 1012.9 |
| 20260503071829 | 48 | 203 | 6.1 | 9.6 | 0.00 | 0.01 | 0.00 | 58 | 1013.0 |
| 20260503071331 | 48 | 197 | 6.1 | 9.6 | 0.00 | 0.01 | 0.00 | 55 | 1012.9 |
| 20260503070832 | 48 | 197 | 6.1 | 9.6 | 0.00 | 0.01 | 0.00 | 56 | 1013.0 |
| 20260503070330 | 48 | 204 | 5.2 | 8.7 | 0.00 | 0.01 | 0.00 | 56 | 1013.0 |
| 20260503054852 | 48 | 180 | 4.3 | 7.8 | 0.00 | 0.01 | 0.00 | 55 | 1013.6 |
| 20260503054413 | 48 | 191 | 5.2 | 7.8 | 0.00 | 0.01 | 0.00 | 55 | 1013.7 |
| 20260503053853 | 48 | 202 | 5.2 | 7.8 | 0.00 | 0.01 | 0.00 | 56 | 1013.7 |
| 20260503053350 | 48 | 186 | 5.2 | 7.8 | 0.00 | 0.01 | 0.00 | 57 | 1013.8 |
| 20260503052832 | 48 | 182 | 4.3 | 8.7 | 0.00 | 0.01 | 0.00 | 56 | 1013.7 |
| 20260503052402 | 48 | 203 | 5.2 | 8.7 | 0.00 | 0.01 | 0.00 | 56 | 1013.8 |
| 20260503051836 | 48 | 190 | 6.1 | 8.7 | 0.00 | 0.01 | 0.00 | 56 | 1013.8 |
| 20260503051337 | 48 | 177 | 7.0 | 8.7 | 0.00 | 0.01 | 0.00 | 55 | 1013.8 |
| 20260503050838 | 48 | 208 | 7.0 | 8.7 | 0.00 | 0.01 | 0.00 | 54 | 1013.9 |
| 20260503050339 | 49 | 199 | 6.1 | 9.6 | 0.00 | 0.01 | 0.00 | 54 | 1013.9 |
| 20260503045832 | 49 | 192 | 6.1 | 8.7 | 0.00 | 0.01 | 0.01 | 54 | 1013.9 |
| 20260503045332 | 49 | 192 | 5.2 | 10.4 | 0.00 | 0.01 | 0.01 | 54 | 1013.9 |
| 20260503044831 | 49 | 187 | 5.2 | 10.4 | 0.00 | 0.01 | 0.01 | 54 | 1013.9 |
| 20260503044333 | 49 | 196 | 5.2 | 8.7 | 0.00 | 0.01 | 0.01 | 53 | 1013.9 |
| 20260503043835 | 49 | 196 | 5.2 | 8.7 | 0.00 | 0.01 | 0.01 | 55 | 1014.0 |
| 20260503043335 | 49 | 208 | 6.1 | 8.7 | 0.00 | 0.01 | 0.01 | 53 | 1013.9 |
| 20260503042854 | 49 | 190 | 4.3 | 8.7 | 0.00 | 0.01 | 0.01 | 54 | 1014.0 |
| 20260503042354 | 49 | 190 | 5.2 | 7.0 | 0.00 | 0.01 | 0.01 | 54 | 1014.0 |
| 20260503041854 | 49 | 197 | 5.2 | 7.0 | 0.00 | 0.01 | 0.01 | 55 | 1014.1 |
| 20260503041346 | 50 | 179 | 5.2 | 7.8 | 0.00 | 0.01 | 0.01 | 55 | 1014.1 |
| 20260503040827 | 50 | 194 | 5.2 | 7.8 | 0.00 | 0.01 | 0.01 | 55 | 1014.1 |
| 20260503040327 | 50 | 192 | 5.2 | 7.8 | 0.00 | 0.01 | 0.01 | 55 | 1014.2 |
| 20260503035829 | 50 | 199 | 5.2 | 7.0 | 0.00 | 0.01 | 0.01 | 53 | 1014.3 |
| 20260503035329 | 50 | 196 | 4.3 | 7.8 | 0.00 | 0.01 | 0.01 | 54 | 1014.3 |
| 20260503034858 | 50 | 192 | 4.3 | 7.0 | 0.00 | 0.01 | 0.01 | 56 | 1014.3 |
| 20260503034334 | 50 | 207 | 5.2 | 7.0 | 0.00 | 0.01 | 0.01 | 57 | 1014.3 |
| 20260503033833 | 50 | 198 | 5.2 | 8.7 | 0.00 | 0.01 | 0.01 | 57 | 1014.3 |
| 20260503033335 | 50 | 199 | 5.2 | 8.7 | 0.00 | 0.01 | 0.01 | 55 | 1014.4 |
| 20260503032858 | 50 | 205 | 5.2 | 7.8 | 0.00 | 0.01 | 0.01 | 53 | 1014.4 |
| 20260503032339 | 50 | 196 | 4.3 | 7.0 | 0.00 | 0.01 | 0.01 | 54 | 1014.4 |
| 20260503031840 | 50 | 197 | 4.3 | 7.0 | 0.00 | 0.01 | 0.01 | 55 | 1014.5 |
| 20260503031352 | 50 | 195 | 4.3 | 7.0 | 0.00 | 0.01 | 0.01 | 54 | 1014.5 |
| 20260503030853 | 50 | 195 | 3.5 | 7.0 | 0.00 | 0.01 | 0.01 | 57 | 1014.5 |
| 20260503030355 | 50 | 195 | 3.5 | 5.2 | 0.00 | 0.01 | 0.01 | 54 | 1014.6 |
| 20260503025838 | 50 | 195 | 3.5 | 5.2 | 0.00 | 0.01 | 0.01 | 54 | 1014.7 |
| 20260503025340 | 50 | 196 | 3.5 | 5.2 | 0.00 | 0.01 | 0.01 | 55 | 1014.7 |
| 20260503024836 | 50 | 197 | 3.5 | 4.3 | 0.00 | 0.01 | 0.01 | 57 | 1014.7 |